Location: Cahas Mountain Overlook
(37.0833°N, 80.1000°W)
Time: 09:09:10
(UTC-05:00)

S-56A Canister/Altair - Pass Details

Date: 02 December 2023
Orbit: 640 x 2488 km, 38.9° (Epoch: 25 February)

Event Time Altitude Azimuth Distance (km) Brightness Sun altitude
Rises 11:56:54 0° 229° (SW) 3,165 11.2 30.9°
Reaches altitude 10° 11:59:33 10° 222° (SW) 2,120 10.6 30.9°
Maximum altitude 12:03:53 39° 153° (SSE) 963 9.6 30.9°
Drops below altitude 10° 12:08:05 10° 84° (E) 2,059 9.8 30.9°
Sets 12:10:37 0° 77° (ENE) 3,059 10.5 30.9°
